{"data":{"norad_id":59943,"intl_designator":"2024-106X","name":"STARLINK-31973","alt_names":[],"object_type":"PAYLOAD","status":"ACTIVE","operator":null,"country":"US","launch_date":"2024-06-01","launch_site_code":"AFETR","launch_vehicle":null,"mission":null,"orbit_class":"UNKNOWN","rcs_meters":null,"size_class":null,"mass_kg":null,"dimensions":null,"purposes":["comms"],"wikipedia_slug":null,"has_3d_model":false,"image_url":null,"decayed_at":null,"tle_current":{"epoch":"2026-05-25T00:23:42.046368Z","epoch_age_seconds":69806,"freshness":"FRESH","line1":"1 59943U 24106X   26145.01645887 -.00000052  00000+0  76478-5 0  9994","line2":"2 59943  43.0003 261.6740 0001078 279.8521  80.2209 15.27579309112191","mean_motion":15.27579309,"eccentricity":0.0001078,"inclination_deg":43.0003,"raan_deg":261.674,"arg_perigee_deg":279.8521,"mean_anomaly_deg":80.2209,"bstar":7.6478e-6,"rev_number":11219,"period_min":94.266791355185,"perigee_km":482.31152905882,"apogee_km":483.79080122722,"semimajor_km":6861.188165143,"source":"CELESTRAK","updated_at":"2026-05-25T13:38:19.126231Z"}}}